EHI
1 1 2 3 2 1 0 0 0 0 0 0 0 0 0 0 0 0 0 0 0 0 0 0 0 0 0 0 0 0 0 0 0 0 0 0 0 0 0 0 0 0 0
0 1 2 2 2 1 0 0 0 0 0 0 0 0 0 0 0 0 0 0 0 0 0 0 0 0 0 0 0 0 0 0 0 0 0 0 0 0 0 0 0 0 0
0 0 1 1 1 0 0 0 0 0 0 0 0 0 0 0 0 0 0 0 0 0 0 0 0 0 0 0 0 0 0 0 0 0 0 0 0 0 0 0 0 0 0
0 0 0 0 0 0 0 0 0 0 0 0 0 0 0 0 0 0 0 0 0 0 0 0 0 0 0 0 0 0 0 0 0 0 0 0 0 0 0 0 0 0 0
0 0 0 0 0 0 0 0 0 0 0 0 0 0 0 0 0 0 0 0 0 0 0 0 0 0 0 0 0 0 0 0 0 0 0 0 0 0 0 0 0 0 0
0 0 0 0 0 0 0 0 0 0 0 1 1 0 0 0 0 0 0 0 0 0 0 0 0 0 0 0 0 0 0 0 0 0 0 0 0 0 0 0 0 0 0
0 0 0 0 0 0 0 0 0 0 1 2 2 1 0 0 0 0 0 0 0 0 0 0 0 0 0 0 0 0 0 0 0 0 0 0 0 0 0 0 0 0 0
0 0 0 0 0 0 0 0 0 0 1 2 2 2 1 0 0 0 0 0 0 0 0 0 0 0 0 0 0 0 0 0 0 0 0 0 0 0 0 0 0 0 0
0 0 0 0 0 0 0 0 0 0 0 1 1 1 1 0 0 0 0 0 0 0 0 0 0 0 0 0 0 0 0 0 0 0 0 0 0 0 0 0 0 0 0
0 0 0 0 0 0 0 0 0 0 0 0 0 0 0 0 0 0 0 0 0 0 0 0 0 0 0 0 0 0 0 0 0 0 0 0 0 0 0 0 0 0 0
0 0 0 0 0 0 0 0 0 0 0 0 0 0 0 0 0 0 0 0 0 0 0 0 0 0 0 0 0 0 0 0 0 0 0 0 0 0 0 0 0 0 0
0 0 0 0 0 0 0 0 0 0 0 0 0 0 0 0 0 0 0 0 0 0 0 0 0 0 0 0 0 0 0 0 0 0 0 0 0 0 0 0 0 0 0
0 0 0 0 0 0 0 0 0 0 0 0 0 0 0 0 0 0 0 0 0 0 0 0 0 0 0 0 0 0 0 0 0 0 0 0 0 0 0 0 0 0 0
0 0 0 0 0 0 0 0 0 0 0 0 0 0 0 1 0 0 0 0 0 0 0 0 0 0 0 0 0 0 0 0 0 0 0 0 0 0 0 0 0 0 0
0 0 0 0 0 0 0 0 0 0 0 0 0 0 0 0 0 0 0 0 0 0 0 0 0 0 0 0 0 0 0 0 0 0 0 0 0 0 0 0 0 0 0
0 0 0 0 0 0 0 0 0 0 0 0 0 0 0 0 0 0 0 0 0 0 0 0 0 0 0 1 1 1 0 0 0 0 0 0 0 0 0 0 0 0 0
0 0 0 0 0 0 0 0 0 0 0 0 0 0 0 0 0 0 0 0 0 0 0 0 1 1 1 2 2 2 1 0 0 0 0 0 0 0 0 0 0 0 0
0 0 0 0 0 0 0 0 0 0 0 0 0 0 0 0 0 0 0 0 0 0 0 0 1 2 2 2 2 2 1 0 0 0 0 0 0 0 0 0 0 0 0
0 0 0 0 0 0 0 0 0 0 0 0 0 0 0 0 0 0 0 0 0 0 0 0 1 1 1 1 1 1 0 0 0 0 0 0 0 0 0 0 0 0 0
0 0 0 0 0 0 0 0 0 0 0 0 0 0 0 0 0 0 0 0 0 0 0 0 0 0 0 0 0 0 0 0 0 0 0 0 0 0 0 0 0 0 0
0 0 0 0 0 0 0 0 0 0 0 0 0 0 0 0 0 0 0 0 0 0 0 0 0 0 0 0 0 0 0 0 0 0 0 0 0 0 0 0 0 0 0
0 0 0 0 0 0 0 0 0 0 0 0 0 0 0 0 0 0 0 0 0 0 0 0 0 0 0 0 0 0 0 0 0 0 0 0 0 0 0 0 0 0 0
0 0 0 0 0 0 0 0 0 0 0 0 0 0 0 0 0 0 0 0 0 0 0 0 0 0 0 0 0 0 0 0 0 0 0 0 0 0 0 0 0 0 0
0 0 0 0 0 0 0 0 0 0 0 0 0 0 0 0 0 0 0 0 0 0 0 0 0 0 0 0 0 0 0 0 0 0 0 0 0 0 0 0 0 0 0
0 0 0 0 0 0 0 0 0 0 0 0 0 0 0 0 0 0 0 0 0 0 0 0 0 0 0 0 0 0 0 0 0 0 0 0 0 0 0 0 0 0 0
0 0 0 0 0 0 0 0 0 0 0 0 0 0 0 0 0 0 0 0 0 0 0 0 0 0 0 0 0 0 0 0 0 0 0 0 0 0 0 0 0 0 0
Wind_Speed
2 2 3 3 3 3 3 3 4 3 4 4 4 4 4 4 4 3 3 3 4 4 4 4 4 4 3 3 4 4 3 2 2 2 3 4 5 4 4 3 3 3 5
2 2 2 2 2 3 3 4 4 4 4 4 4 4 4 4 4 4 4 4 4 4 5 5 5 4 4 4 4 4 4 4 4 4 5 5 5 5 4 4 3 2 3
2 2 2 2 3 3 3 3 4 4 4 4 5 5 4 4 5 5 5 5 5 5 4 5 5 6 6 4 5 5 4 4 3 4 5 4 4 5 5 4 3 2 3
2 2 2 3 3 3 3 3 4 4 4 5 5 5 5 5 5 5 5 5 5 5 4 5 5 6 6 6 5 5 5 5 5 5 5 5 5 5 5 5 4 4 3
2 3 3 3 3 3 3 3 3 4 4 4 5 5 5 5 4 5 5 5 5 5 5 5 5 4 3 4 4 5 6 5 5 5 5 6 5 6 6 5 4 4 4
2 3 3 3 3 3 3 3 3 3 4 4 5 5 5 4 2 4 5 6 6 6 5 4 4 5 5 6 5 5 6 7 7 6 6 7 8 8 6 6 5 5 4
2 3 2 3 3 3 3 3 4 4 4 4 4 4 5 3 3 4 6 6 6 6 6 5 4 4 6 7 8 8 8 7 7 7 8 8 8 8 8 8 7 6 4
3 3 3 3 3 4 4 4 5 4 4 4 4 5 4 3 3 4 6 8 7 7 6 6 5 5 5 5 7 8 8 9 9 8 7 7 6 6 8 7 6 5 4
3 3 4 4 4 4 4 5 5 4 4 5 5 5 6 5 4 5 6 6 6 7 6 6 6 6 3 5 7 7 7 7 6 6 4 2 1 4 5 5 6 6 5
4 4 4 5 5 5 5 5 4 5 5 5 5 5 6 6 4 6 7 5 5 5 5 6 5 5 4 6 8 7 8 7 6 6 6 5 6 7 9 9 7 6 5
4 4 4 5 5 5 4 4 5 5 5 5 6 5 6 6 5 6 7 6 5 5 5 4 4 4 5 6 8 7 6 5 6 7 6 6 6 6 8 8 7 6 6
4 4 4 5 5 4 4 4 5 5 5 5 5 5 4 4 4 5 7 7 6 6 5 4 3 4 5 6 6 5 4 5 4 5 5 5 6 6 6 7 7 7 5
4 5 5 5 5 5 5 5 5 5 5 5 5 5 5 4 4 5 7 7 7 6 4 3 3 4 4 5 6 6 6 5 5 5 6 6 5 5 5 5 6 5 5
5 5 4 5 5 5 4 4 4 5 5 5 5 5 5 4 4 4 4 5 6 6 5 3 4 5 5 4 4 6 5 5 5 6 6 5 4 4 5 5 5 5 5
5 5 5 4 5 4 4 4 5 5 5 6 5 5 5 6 5 5 4 4 5 5 5 4 4 4 5 5 5 5 5 5 5 5 5 5 5 5 5 5 5 5 6
5 5 4 4 4 4 4 4 4 5 5 6 7 7 6 6 5 5 6 5 5 5 5 5 5 5 5 5 5 5 5 5 5 5 5 5 6 6 6 5 5 6 6
6 5 5 4 5 5 5 5 5 4 4 6 7 7 8 7 6 6 7 6 6 7 6 6 6 6 6 6 5 6 6 5 5 5 5 5 5 6 6 6 7 6 6
6 6 6 5 5 5 5 5 5 5 4 4 5 7 7 7 7 7 7 5 5 6 6 6 6 6 6 6 6 6 6 5 5 5 5 5 6 6 6 7 7 8 7
6 5 5 5 5 5 5 5 5 6 5 5 4 4 5 6 6 7 7 6 6 6 6 6 6 6 6 6 5 5 6 5 6 5 5 6 6 6 7 7 7 8 8
5 7 7 6 5 5 5 5 5 5 6 5 5 5 3 4 4 4 6 6 6 6 6 6 6 6 6 6 5 5 5 5 6 6 5 5 6 6 7 8 7 7 7
5 5 7 6 5 5 5 5 5 5 6 6 6 5 5 5 5 6 6 6 6 7 6 6 6 6 6 5 5 6 7 6 5 5 5 5 6 6 6 6 7 7 7
5 5 5 5 5 5 6 5 5 6 6 7 6 5 7 6 6 6 6 6 7 6 6 6 6 6 6 6 6 6 6 6 6 6 5 5 6 6 6 6 6 6 6
5 5 5 5 5 6 6 6 5 6 6 6 6 6 5 6 6 6 6 6 6 6 6 6 6 6 6 6 6 6 7 7 6 6 6 6 6 6 6 6 7 7 7
5 5 5 5 5 5 5 5 5 5 6 6 6 6 5 5 6 6 6 6 6 6 6 6 7 8 10 7 6 6 6 6 6 6 8 7 7 7 7 7 7 8 8
4 5 5 5 5 5 5 5 6 6 6 6 5 5 5 5 5 5 5 5 6 6 7 7 6 7 10 11 9 8 7 7 7 6 7 7 8 8 8 8 7 7 7
4 5 5 4 4 5 5 5 5 5 5 5 5 5 5 5 5 5 5 5 5 5 6 6 7 8 9 9 10 9 8 8 8 8 7 6 8 8 8 7 9 8 8
Wind_Direction
243 234 229 228 232 229 231 233 237 235 227 228 237 242 231 223 214 211 226 220 228 216 205 209 213 209 199 197 203 210 214 208 187 152 146 151 164 157 152 150 140 147 115
252 249 242 237 234 237 236 237 241 240 236 233 235 237 233 230 225 219 219 222 229 230 219 213 211 203 204 204 205 209 203 202 194 172 159 167 174 165 161 161 156 144 122
257 251 248 244 244 246 242 240 242 242 239 235 233 236 234 233 229 225 224 227 227 226 228 226 221 209 205 198 204 207 201 197 193 184 167 161 173 172 167 173 172 162 146
259 254 250 254 257 256 256 250 248 242 241 243 239 236 238 238 233 227 227 229 226 226 228 230 227 221 211 200 201 204 199 193 193 190 175 172 175 179 186 184 180 179 184
260 257 260 266 269 268 261 258 255 250 247 245 245 239 236 240 241 240 232 230 228 229 228 229 229 230 230 216 214 205 198 196 195 195 189 180 181 185 196 194 192 183 183
267 266 270 271 271 269 269 265 256 253 252 249 248 247 243 238 233 247 254 237 231 230 229 230 224 216 207 209 222 228 221 210 204 203 202 201 199 196 193 196 193 192 191
275 278 279 280 279 272 272 269 257 253 254 253 251 249 249 242 206 223 241 248 240 240 236 230 231 228 215 213 203 209 222 232 231 226 218 215 207 196 192 197 202 208 206
274 283 287 281 279 275 266 263 261 256 251 253 253 250 247 240 216 227 240 239 240 239 238 235 230 230 222 226 216 212 216 216 221 229 233 227 217 198 197 202 200 202 199
274 281 282 281 278 275 268 265 264 263 258 253 252 253 251 242 217 222 239 237 236 236 238 239 237 232 209 223 228 220 217 216 214 233 269 274 190 181 190 191 189 195 203
285 288 288 283 276 271 271 270 265 259 257 255 250 249 250 251 221 217 234 238 237 238 239 238 233 242 211 216 226 225 222 217 206 203 217 213 203 186 193 204 197 206 213
295 295 292 288 282 275 273 270 266 262 257 254 251 247 247 248 222 217 230 241 240 242 239 236 227 208 224 227 236 232 232 233 217 209 207 205 198 193 193 206 209 214 221
293 289 286 286 286 278 267 265 263 260 255 252 251 249 248 242 239 226 228 243 259 248 244 240 226 204 222 229 231 228 219 228 222 213 206 206 201 198 197 199 207 213 228
287 284 283 281 283 280 269 261 257 255 254 251 248 248 245 242 231 224 223 229 242 249 249 249 233 208 218 223 220 210 207 215 217 216 211 212 207 205 193 191 203 208 217
283 284 285 287 288 287 279 268 261 255 254 253 248 248 247 241 236 226 222 220 221 233 237 214 207 212 230 241 213 209 220 219 220 224 219 213 200 195 196 191 193 192 202
281 283 282 282 282 284 282 279 268 266 268 265 260 254 249 244 243 247 238 229 225 226 225 220 218 214 217 221 223 221 219 216 221 226 222 214 200 197 197 194 197 199 209
282 285 283 280 279 276 277 277 271 265 278 274 274 271 261 261 264 238 240 241 232 213 218 223 222 223 224 223 225 222 217 217 219 219 223 219 208 204 201 194 197 205 212
279 282 280 277 274 271 267 265 269 265 255 254 255 258 260 263 249 231 226 225 219 204 220 226 227 228 229 229 231 228 223 220 218 219 221 222 213 209 204 200 201 208 214
280 280 279 273 271 269 265 263 264 265 266 264 245 235 240 242 236 228 221 215 219 218 230 232 231 232 232 230 231 232 227 219 217 218 221 222 213 212 211 208 207 209 213
282 279 279 279 275 271 266 262 261 261 260 262 265 241 221 224 220 216 206 222 226 226 231 234 235 234 234 233 233 233 227 222 220 218 220 220 216 215 216 216 214 211 214
281 285 286 279 273 269 266 262 258 255 253 254 254 254 235 225 225 215 217 227 231 233 233 234 235 237 237 235 232 231 228 225 225 224 225 220 217 221 220 220 218 214 216
278 275 277 275 270 269 265 262 260 257 255 253 253 251 240 236 232 227 226 228 230 234 235 236 235 235 235 235 230 228 229 227 226 226 228 223 215 221 225 224 222 219 218
276 275 271 273 274 271 268 263 260 257 256 256 256 244 227 236 238 236 231 233 234 235 234 233 236 235 235 235 229 227 227 226 225 225 227 229 221 221 224 224 224 219 217
276 276 273 272 273 274 268 264 260 258 258 258 258 252 236 239 241 240 236 235 235 236 234 232 233 235 234 234 232 230 231 229 226 223 225 230 226 222 223 224 225 226 222
278 277 274 272 271 269 266 266 263 260 259 257 255 253 246 242 244 246 245 241 237 235 233 232 234 236 234 232 232 232 234 231 229 226 225 229 228 223 222 224 225 227 227
280 279 277 275 272 270 269 267 265 261 259 258 256 254 254 250 246 245 244 243 243 241 241 240 238 236 236 235 234 234 228 222 225 231 231 230 229 225 224 224 223 226 229
279 279 278 277 277 276 274 272 269 268 265 262 259 256 254 251 248 246 245 242 242 242 243 242 244 244 243 240 237 235 225 219 220 228 232 230 230 226 223 225 225 226 228